Dubuque, IA

7:00 PM CDT on April 29, 2017 (GMT -0500)
Dubuque Regional

Weather History for KDBQ - August, 2014

Change the Weather History Date:

Saturday, August 9, 2014

  Actual Average Record
Temperature  
Mean Temperature 70 °F 71 °F  
Max Temperature 81 °F 81 °F 99 °F (1936)
Min Temperature 58 °F 61 °F 46 °F (1927)
Degree Days  
Heating Degree Days 0 0  
Month to date heating degree days 0 0  
Since 1 June heating degree days 37 48  
Since 1 July heating degree days 27 8  
Cooling Degree Days 5 6  
Month to date cooling degree days 42 59  
Year to date cooling degree days 352 459  
Since 1 June cooling degree days 298 422  
Growing Degree Days 19 (Base 50)    
Moisture  
Dew Point 58 °F    
Average Humidity 69    
Maximum Humidity 93    
Minimum Humidity 45    
Precipitation  
Precipitation 0.00 in 0.14 in 2.36 in (2009)
Month to date precipitation 0.03 1.26  
Year to date precipitation 27.06 22.84  
Snow  
Snow 0.00 in 0.00 in - ()
Month to date snowfall 0.0 0.0  
Since 1 June snowfall 0.0 0.0  
Since 1 July snowfall 0.0 0.0  
Snow Depth 0.00 in    
Sea Level Pressure  
Sea Level Pressure 30.08 in    
Wind  
Wind Speed 8 mph (ENE)    
Max Wind Speed 15 mph    
Max Gust Speed 18 mph    
Visibility 10 miles    
Events      
T = Trace of Precipitation, MM = Missing Value Source: NWS Daily Summary

Daily Weather History Graph

Daily Weather History Graph

Search for Another Location

Airport or City:

Trip Planner

Search our weather history database for the weather conditions in past years. The results will help you decide how hot, cold, wet, or windy it might be!

Date:

Astronomy

Aug. 09, 2014 Rise Set
Actual Time 6:03 AM CDT 8:12 PM CDT
Civil Twilight 5:32 AM CDT 8:43 PM CDT
Nautical Twilight 4:54 AM CDT 9:21 PM CDT
Astronomical Twilight 4:12 AM CDT 10:02 PM CDT
Moon 7:13 PM CDT (8/9) 4:44 AM CDT (8/9)
Length of Visible Light 15h 10m
Length of Day
14h 08m
Waxing Gibbous, 98% of the Moon is Illuminated
Aug 9
Waxing Gibbous
Aug 10
Full
Aug 17
Last Quarter
Aug 25
New
Sep 2
First Quarter

Hourly Weather History & Observations

Time (CDT) Temp. Heat Index Dew Point Humidity Pressure Visibility Wind Dir Wind Speed Gust Speed Precip Events Conditions
12:53 AM 64.9 °F - 55.9 °F 73% 30.06 in 10.0 mi East 10.4 mph - N/A   Clear
1:53 AM 63.0 °F - 55.9 °F 78% 30.06 in 10.0 mi East 8.1 mph - N/A   Clear
2:53 AM 62.1 °F - 55.9 °F 80% 30.06 in 10.0 mi ENE 8.1 mph - N/A   Clear
3:53 AM 62.1 °F - 55.9 °F 80% 30.06 in 10.0 mi ENE 8.1 mph - N/A   Clear
4:53 AM 62.1 °F - 55.9 °F 80% 30.07 in 10.0 mi NE 6.9 mph - N/A   Clear
5:53 AM 59.0 °F - 55.9 °F 90% 30.09 in 10.0 mi NNE 6.9 mph - N/A   Mostly Cloudy
6:53 AM 59.0 °F - 57.0 °F 93% 30.09 in 10.0 mi NNE 6.9 mph - N/A   Partly Cloudy
7:53 AM 63.0 °F - 59.0 °F 87% 30.10 in 10.0 mi North 4.6 mph - N/A   Clear
8:53 AM 68.0 °F - 61.0 °F 78% 30.12 in 10.0 mi NNE 6.9 mph - N/A   Clear
9:53 AM 73.0 °F - 61.0 °F 66% 30.12 in 10.0 mi East 6.9 mph - N/A   Scattered Clouds
10:53 AM 75.9 °F - 60.1 °F 58% 30.10 in 10.0 mi East 10.4 mph - N/A   Clear
12:53 PM 79.0 °F - 57.0 °F 47% 30.09 in 10.0 mi ESE 10.4 mph - N/A   Partly Cloudy
1:53 PM 79.0 °F - 57.9 °F 48% 30.09 in 10.0 mi East 5.8 mph - N/A   Partly Cloudy
2:53 PM 80.1 °F 80.6 °F 57.9 °F 47% 30.09 in 10.0 mi ENE 10.4 mph - N/A   Partly Cloudy
3:53 PM 78.1 °F - 59.0 °F 52% 30.08 in 10.0 mi East 10.4 mph - N/A   Mostly Cloudy
4:53 PM 79.0 °F - 57.9 °F 48% 30.07 in 10.0 mi ENE 9.2 mph - N/A   Partly Cloudy
5:53 PM 79.0 °F - 57.9 °F 48% 30.06 in 10.0 mi ENE 9.2 mph - N/A   Clear
6:53 PM 77.0 °F - 60.1 °F 56% 30.06 in 10.0 mi ENE 5.8 mph - N/A   Clear
7:53 PM 73.9 °F - 61.0 °F 64% 30.06 in 10.0 mi ENE 5.8 mph - N/A   Clear
8:53 PM 72.0 °F - 61.0 °F 68% 30.07 in 10.0 mi East 5.8 mph - N/A   Clear
9:53 PM 71.6 °F - 60.8 °F 69% 30.08 in 10.0 mi East 6.9 mph - N/A   Clear
10:53 PM 66.2 °F - 60.8 °F 83% 30.07 in 10.0 mi ESE 6.9 mph - N/A   Clear
11:53 PM 66.0 °F - 60.1 °F 81% 30.06 in 10.0 mi East 8.1 mph - N/A   Clear